This demonstration page uses our WeatherBlox Daily Observations layout. Learn more.

Left ArrowRight Arrow

39.51506, -84.39828

Hourly Observations for May 6, 2021

Temp ( °F °C ) Dew Point ( °F °C ) Humidity (%) Winds ( mph kmh ) Pressure ( in mb ) Visibility ( mi km ) Precip ( " mm )
12:15 am 00:15 Clear 45 7.2 38 3.4 77 77 N 3 6 30.17 1022 10 16.0934 N/A
12:35 am 00:35 Clear 43 6.3 39 3.9 85 85 N N/A 30.17 1022 10 16.0934 N/A
12:55 am 00:55 Clear 43 6.2 39 3.9 85 85 ENE 3 6 30.18 1022 10 16.0934 N/A
1:15 am 01:15 Clear 42 5.4 38 3.2 86 86 N N/A 30.18 1022 10 16.0934 N/A
1:35 am 01:35 Clear 43 6 38 3.5 84 84 E 3 6 30.18 1022 10 16.0934 N/A
1:55 am 01:55 Clear 44 6.7 38 3.1 78 78 E 5 7 30.18 1022 10 16.0934 N/A
2:15 am 02:15 Clear 42 5.7 41 4.9 95 95 N 3 6 30.18 1022 10 16.0934 N/A
2:35 am 02:35 Clear 40 4.3 39 4.1 99 99 N N/A 30.18 1022 10 16.0934 N/A
2:55 am 02:55 Clear 40 4.6 40 4.3 98 98 N N/A 30.17 1022 10 16.0934 N/A
3:15 am 03:15 Clear 39 4 39 4 100 100 N N/A 30.17 1022 10 16.0934 N/A
3:35 am 03:35 Clear 39 4 N/A N/A NNW 3 6 30.17 1022 10 16.0934 N/A
3:55 am 03:55 Clear 39 4 37 3 93 93 N N/A 30.17 1022 10 16.0934 N/A
4:15 am 04:15 Clear 39 3.7 38 3.6 99 99 NNW 3 6 30.17 1022 10 16.0934 N/A
4:35 am 04:35 Clear 37 3 37 3 100 100 N N/A 30.17 1022 10 16.0934 N/A
4:55 am 04:55 Clear 37 3 N/A N/A N N/A 30.17 1022 10 16.0934 N/A
5:15 am 05:15 Clear 37 3 N/A N/A N N/A 30.18 1022 10 16.0934 N/A
5:35 am 05:35 Clear 36 2 N/A N/A N N/A 30.18 1022 10 16.0934 N/A
5:55 am 05:55 Clear 37 3 N/A N/A N N/A 30.19 1022 10 16.0934 N/A
6:15 am 06:15 Clear 37 3 N/A N/A N N/A 30.19 1022 10 16.0934 N/A
6:35 am 06:35 Sunny 37 3 N/A N/A WNW 3 6 30.18 1022 10 16.0934 N/A
6:55 am 06:55 Sunny 37 3 N/A N/A N N/A 30.19 1022 10 16.0934 N/A
7:15 am 07:15 Sunny 39 4 N/A N/A N N/A 30.18 1022 10 16.0934 N/A
7:35 am 07:35 Sunny 40 4.2 40 4.2 100 100 N N/A 30.19 1022 10 16.0934 N/A
7:55 am 07:55 Sunny 41 5.2 41 5 99 99 N N/A 30.2 1023 10 16.0934 N/A
8:15 am 08:15 Sunny 43 6.3 41 5.1 92 92 N N/A 30.2 1023 10 16.0934 N/A
8:35 am 08:35 Sunny 47 8.1 39 3.9 75 75 N N/A 30.18 1022 10 16.0934 N/A
8:55 am 08:55 Sunny 47 8.5 39 4.1 74 74 N N/A 30.18 1022 10 16.0934 N/A
9:15 am 09:15 Sunny 49 9.5 41 4.8 73 73 WSW 5 7 30.18 1022 10 16.0934 N/A
9:35 am 09:35 Sunny 50 10.1 41 5.1 71 71 SW 3 6 30.19 1022 10 16.0934 N/A
9:55 am 09:55 Partly Cloudy 51 10.4 41 5.1 70 70 W 3 6 30.19 1022 10 16.0934 N/A
10:15 am 10:15 Sunny 52 11.3 42 5.5 68 68 SSW 5 7 30.18 1022 10 16.0934 N/A
10:35 am 10:35 Sunny 54 12.2 42 5.5 64 64 SW 9 15 30.17 1022 10 16.0934 N/A
10:55 am 10:55 Sunny 55 12.6 42 5.3 61 61 SW 14 22 30.16 1021 10 16.0934 N/A
11:15 am 11:15 Sunny 56 13.3 42 5.6 60 60 SSW 10 17 30.16 1021 10 16.0934 N/A
11:35 am 11:35 Partly Cloudy 58 14.2 42 5.7 57 57 SW 13 20 30.15 1021 10 16.0934 N/A
11:55 am 11:55 Partly Cloudy 58 14.3 42 5.3 55 55 SSW 10 17 30.14 1021 10 16.0934 N/A
12:15 pm 12:15 Sunny 58 14.6 40 4.5 51 51 SW 9 15 30.14 1021 10 16.0934 N/A
12:35 pm 12:35 Sunny 59 14.9 40 4.7 51 51 WSW 10 17 30.13 1020 10 16.0934 N/A
12:55 pm 12:55 Sunny 60 15.5 41 5.2 51 51 WSW 10 17 30.12 1020 10 16.0934 N/A
1:15 pm 13:15 Mostly Cloudy 60 15.6 40 4.4 47 47 SSW 10 17 30.11 1019 10 16.0934 N/A
1:35 pm 13:35 Mostly Cloudy 60 15.7 41 5 49 49 SSW 8 13 30.09 1019 10 16.0934 N/A
1:55 pm 13:55 Mostly Cloudy 61 16.2 39 4.1 45 45 SSW 10 17 30.07 1018 10 16.0934 N/A
2:15 pm 14:15 Cloudy 62 16.9 40 4.7 45 45 W 12 19 30.07 1018 10 16.0934 N/A
2:35 pm 14:35 Cloudy 62 16.9 40 4.7 45 45 W 8 13 30.06 1018 10 16.0934 N/A
2:55 pm 14:55 Cloudy 61 16.2 40 4.2 45 45 SW 10 17 30.05 1018 10 16.0934 N/A
3:15 pm 15:15 Cloudy 60 15.6 40 4.2 47 47 WSW 8 13 30.05 1017 10 16.0934 N/A
3:35 pm 15:35 Cloudy 60 15.7 38 3.2 43 43 WNW 6 9 30.04 1017 10 16.0934 N/A
3:55 pm 15:55 Cloudy 61 16.2 38 3.3 42 42 W 7 11 30.03 1017 10 16.0934 N/A
4:15 pm 16:15 Cloudy 60 15.6 40 4.5 48 48 W 13 20 30.04 1017 10 16.0934 N/A
4:35 pm 16:35 Mostly Cloudy 59 14.9 42 5.8 55 55 WNW 12 19 30.04 1017 10 16.0934 N/A
4:55 pm 16:55 Cloudy 59 14.9 43 6.1 56 56 NW 7 11 30.04 1017 10 16.0934 N/A
5:15 pm 17:15 Cloudy with Light Rain 59 14.9 43 6.1 56 56 W 5 7 30.03 1017 10 16.0934 N/A
5:35 pm 17:35 Cloudy 59 15 43 5.9 55 55 SW 7 11 30.03 1017 10 16.0934 N/A
5:55 pm 17:55 Cloudy with Light Rain 58 14.7 42 5.4 54 54 N N/A 30.02 1016 10 16.0934 N/A
6:15 pm 18:15 Cloudy with Light Rain 58 14.6 42 5.6 55 55 SSW 3 6 30.01 1016 10 16.0934 N/A
6:35 pm 18:35 Cloudy 58 14.7 43 5.9 56 56 N N/A 30.01 1016 10 16.0934 N/A
6:55 pm 18:55 Cloudy 58 14.6 42 5.4 54 54 N N/A 30.01 1016 10 16.0934 N/A
7:15 pm 19:15 Cloudy 58 14.2 45 7.1 63 63 N N/A 30 1016 10 16.0934 N/A
7:35 pm 19:35 Mostly Cloudy 57 14 46 7.7 66 66 N N/A 30 1016 10 16.0934 N/A
7:55 pm 19:55 Cloudy with Light Rain 56 13.3 50 9.8 80 80 N N/A 30 1016 10 16.0934 N/A
8:15 pm 20:15 Cloudy with Light Rain 55 12.7 51 10.4 86 86 WNW 5 7 30 1016 10 16.0934 N/A
8:35 pm 20:35 Cloudy with Light Rain 53 11.6 49 9.4 86 86 WNW 12 19 30.01 1016 7 11.26538 0.01 0.254
8:55 pm 20:55 Cloudy with Rain 52 10.9 50 10.1 95 95 WNW 3 6 30.03 1017 7 11.26538 0.04 1.016
9:15 pm 21:15 Cloudy with Light Rain 51 10.8 50 10.2 96 96 S 5 7 30.02 1016 10 16.0934 0.01 0.254
9:35 pm 21:35 Cloudy with Light Rain 51 10.7 49 9.6 93 93 S 5 7 30.02 1016 7 11.26538 0.04 1.016
9:55 pm 21:55 Cloudy with Rain 51 10.5 50 9.8 95 95 SW 3 6 30.03 1017 7 11.26538 0.06 1.524
10:15 pm 22:15 Cloudy with Rain 51 10.4 49 9.7 95 95 SW 6 9 30.03 1017 7 11.26538 0.03 0.762
10:35 pm 22:35 Cloudy with Light Rain 51 10.3 49 9.6 95 95 WSW 6 9 30.02 1017 10 16.0934 0.05 1.27
10:55 pm 22:55 Cloudy with Light Rain 50 10.2 49 9.7 97 97 SW 7 11 30.02 1017 10 16.0934 0.05 1.27
11:15 pm 23:15 Cloudy with Light Rain 50 10.2 50 10 99 99 SW 8 13 30.02 1017 7 11.26538 0.01 0.254
11:35 pm 23:35 Cloudy with Light Rain 50 10 50 10 100 100 SW 9 15 30.01 1016 7 11.26538 0.02 0.508
11:55 pm 23:55 Cloudy with Light Rain 50 9.9 50 9.8 99 99 WSW 12 19 30.01 1016 10 16.0934 0.03 0.762

Powered by AerisWeather